sat.trackr.live / text

‹ back to catalog

STARLINK-30764

NORAD 58170 · 2023-166W

PAYLOAD ACTIVE UNKNOWN

§ Identity

Operator
Country
US
Launch date
2023-10-29
Launch site
AFWTR
Launch vehicle
Mass (kg)
RCS (m²)

Purposes: comms

External: N2YO · Heavens-Above · Gunter

§ Orbital elements

Epoch: 2026-05-25T04:32:55.225248Z

Period
94.11 min
Inclination
53.1609°
Eccentricity
0.0000900
Mean motion
15.30194208 rev/d
Perigee alt
474.6 km
Apogee alt
475.8 km
Semi-major
6,853.4 km
B*
3.7894e-5
RAAN
224.1487°
Arg perigee
99.3649°
Mean anomaly
260.7454°
Rev number
14,489

§ Raw data

STARLINK-307641 58170U 23166W   26145.18952807  .00000763  00000+0  37894-4 0  99972 58170  53.1609 224.1487 0000900  99.3649 260.7454 15.30194208144891

JSON: /api/v1/satellites/58170 · /tle

For live sub-satellite position, see the globe view (requires WebGL).

§ Visibility from observer

Set your observer location to see the next 7 days of passes ≥ 10°. The values pass through the URL so the page stays shareable.

No JS? Fill the form by hand. The geolocation button needs JavaScript.